Flag for Thailand Weather past 2 weeks in Phuket, Thailand

Now
79 °F

Passing clouds.


Feels Like: 82 °F
Forecast: 80 / 86 °F
Wind: No wind

Location: Phuket Airport

Current Time: Sep 30, 2014 at 11:11:58 PM

Latest Report: Sep 30, 2014 at 10:30 PM


Visibility: N/A

Pressure: 29.89 "Hg

Humidity: 89%

Dew point: 75 °F

Location of PhuketLocation

Historic Weather in Phuket — Graph

°F

Phuket temperature yesterday

Maximum temperature yesterday: 90 °F (at 11:00 AM)
Minimum temperature yesterday: 77 °F (at 6:30 AM)
Average temperature yesterday: 83 °F

Past Weeks' High & Low Weather Summary

 TemperatureHumidityPressure
High90 °F (Sep 18, 12:30 PM)94% (Sep 16, 6:30 AM)29.98 "Hg (Sep 16, 6:30 AM)
Low73 °F (Sep 16, 9:00 AM)55% (Sep 25, 11:30 AM)29.71 "Hg (Sep 16, 3:00 PM)
Average82 °F78%29.86 "Hg
* Reported Sep 15 10:00 PM — Sep 30 10:00 PM, Phuket, Weather by CustomWeather, © 2014

Note: Actual official high and low records may vary slightly from our data, if they occured in-between our weather recording intervals... More about our weather records

Advertising

Phuket weather history for previous 24 hours

 ConditionsComfort  
Time TempWeatherWind HumidityBarometerVisibility
10:00 PM
Sep 30
79 °FPassing clouds.No wind89%29.89 "HgN/A
9:30 PM79 °FPassing clouds.No wind89%29.86 "HgN/A
9:00 PM79 °FPassing clouds.No wind89%29.86 "HgN/A
8:30 PM79 °FPassing clouds.No wind89%29.86 "HgN/A
8:00 PM79 °FPartly cloudy.1 mph89%29.86 "Hg6 mi
7:30 PM81 °FPartly cloudy.No wind84%29.83 "Hg6 mi
7:00 PM82 °FPartly cloudy.2 mph79%29.83 "Hg6 mi
6:00 PM82 °FBroken clouds.3 mph79%29.83 "Hg6 mi
5:30 PM84 °FBroken clouds.6 mph70%29.80 "Hg6 mi
5:00 PM84 °FBroken clouds.8 mph70%29.80 "Hg6 mi
4:30 PM84 °FBroken clouds.7 mph74%29.80 "Hg6 mi
4:00 PM86 °FBroken clouds.10 mph70%29.80 "Hg6 mi
3:30 PM86 °FBroken clouds.10 mph66%29.77 "Hg6 mi
3:00 PM86 °FBroken clouds.9 mph66%29.80 "Hg6 mi
2:30 PM86 °FBroken clouds.9 mph70%29.80 "Hg6 mi
2:00 PM86 °FBroken clouds.9 mph66%29.83 "Hg6 mi
1:30 PM86 °FBroken clouds.8 mph66%29.83 "Hg6 mi
1:00 PM86 °FBroken clouds.7 mph66%29.86 "Hg6 mi
12:30 PM88 °FBroken clouds.9 mph62%29.86 "Hg6 mi
12:00 PM88 °FBroken clouds.6 mph62%29.89 "Hg6 mi
11:30 AM86 °FBroken clouds.9 mph66%29.89 "Hg6 mi
11:00 AM86 °FBroken clouds.7 mph66%29.92 "Hg6 mi
10:30 AM86 °FBroken clouds.6 mph66%29.92 "Hg6 mi
10:00 AM84 °FBroken clouds.5 mph70%29.92 "Hg6 mi
9:30 AM84 °FBroken clouds.3 mph74%29.92 "Hg5 mi
9:00 AM82 °FBroken clouds.6 mph79%29.92 "Hg5 mi
8:30 AM82 °FBroken clouds.5 mph79%29.89 "Hg5 mi
8:00 AM79 °FBroken clouds.No wind89%29.89 "Hg5 mi
7:30 AM77 °FBroken clouds.No wind94%29.89 "Hg5 mi
7:00 AM77 °FThunderstorms. Broken clouds.No wind89%29.89 "Hg4 mi
6:30 AM77 °FThunderstorms. Broken clouds.No wind89%29.86 "Hg4 mi
6:00 AM77 °FPartly cloudy.No wind89%29.86 "Hg6 mi
5:30 AM77 °FPartly cloudy.No wind89%29.83 "Hg6 mi
4:30 AM77 °FLight rain. Partly cloudy.3 mph83%29.83 "Hg4 mi
4:00 AM77 °FLight rain. Partly cloudy.5 mph83%29.83 "Hg4 mi
3:30 AM79 °FPassing clouds.No wind89%29.83 "Hg6 mi
3:00 AM79 °FPassing clouds.No wind89%29.83 "Hg6 mi
2:30 AM79 °FPassing clouds.No wind89%29.83 "Hg6 mi
1:30 AM79 °FPassing clouds.No wind89%29.86 "Hg6 mi
1:00 AM79 °FPassing clouds.No wind89%29.86 "Hg6 mi
12:30 AM79 °FPassing clouds.No wind89%29.86 "Hg6 mi
12:00 AM81 °FPassing clouds.No wind84%29.89 "HgN/A
11:30 PM
Sep 29
81 °FPassing clouds.No wind84%29.89 "Hg6 mi
11:00 PM81 °FPassing clouds.No wind84%29.89 "Hg6 mi
Weather by CustomWeather, © 2014

See weather overviewHow to use our weather pages